TimeEDT,TemperatureF,Dew PointF,Humidity,Sea Level PressureIn,VisibilityMPH,Wind Direction,Wind SpeedMPH,Gust SpeedMPH,PrecipitationIn,Events,Conditions,WindDirDegrees,DateUTC
12:56 AM,53.1,37.9,57,30.00,-9999.0,SSW,10.4,-,N/A,,Unknown,200,2013-04-28 04:56:00
1:56 AM,51.1,36.0,56,29.99,-9999.0,South,8.1,-,N/A,,Unknown,190,2013-04-28 05:56:00
2:56 AM,50.0,35.1,57,29.98,-9999.0,South,6.9,-,N/A,,Unknown,190,2013-04-28 06:56:00
3:56 AM,48.9,34.0,56,29.97,-9999.0,South,6.9,-,N/A,,Unknown,180,2013-04-28 07:56:00
4:56 AM,45.0,32.0,60,29.97,-9999.0,South,8.1,-,N/A,,Unknown,180,2013-04-28 08:56:00
5:56 AM,44.1,32.0,63,29.96,-9999.0,South,8.1,-,N/A,,Unknown,190,2013-04-28 09:56:00
6:56 AM,45.0,33.1,63,29.96,-9999.0,South,6.9,-,N/A,,Unknown,190,2013-04-28 10:56:00
7:56 AM,46.9,33.1,59,29.97,-9999.0,South,6.9,-,N/A,,Unknown,190,2013-04-28 11:56:00
8:56 AM,52.0,34.0,50,29.97,-9999.0,South,9.2,-,N/A,,Unknown,180,2013-04-28 12:56:00
9:56 AM,57.0,37.0,47,29.96,-9999.0,South,10.4,-,N/A,,Unknown,190,2013-04-28 13:56:00
10:56 AM,63.0,39.9,43,29.93,-9999.0,South,9.2,-,N/A,,Unknown,180,2013-04-28 14:56:00
11:56 AM,66.0,39.9,38,29.91,-9999.0,South,10.4,17.3,N/A,,Unknown,170,2013-04-28 15:56:00
12:56 PM,68.0,41.0,37,29.89,-9999.0,South,9.2,24.2,N/A,,Unknown,180,2013-04-28 16:56:00
1:56 PM,69.1,39.0,33,29.86,-9999.0,South,8.1,-,N/A,,Unknown,190,2013-04-28 17:56:00
2:56 PM,71.1,35.1,27,29.85,-9999.0,South,12.7,20.7,N/A,,Unknown,180,2013-04-28 18:56:00
3:56 PM,72.0,35.1,26,29.83,-9999.0,South,15.0,20.7,N/A,,Unknown,190,2013-04-28 19:56:00
4:56 PM,71.1,34.0,26,29.81,-9999.0,SSW,12.7,19.6,N/A,,Unknown,210,2013-04-28 20:56:00
5:56 PM,71.1,32.0,24,29.79,-9999.0,South,12.7,21.9,N/A,,Unknown,180,2013-04-28 21:56:00
6:56 PM,70.0,32.0,25,29.80,-9999.0,South,9.2,-,N/A,,Unknown,190,2013-04-28 22:56:00
7:56 PM,64.9,33.1,31,29.80,-9999.0,South,8.1,-,N/A,,Unknown,170,2013-04-28 23:56:00
8:56 PM,60.1,33.1,36,29.79,-9999.0,South,5.8,-,N/A,,Unknown,180,2013-04-29 00:56:00
9:56 PM,55.9,33.1,42,29.80,-9999.0,South,5.8,-,N/A,,Unknown,190,2013-04-29 01:56:00
10:56 PM,55.0,34.0,45,29.80,-9999.0,SSW,5.8,-,N/A,,Unknown,200,2013-04-29 02:56:00
11:56 PM,53.1,34.0,48,29.79,-9999.0,SSW,8.1,-,N/A,,Unknown,200,2013-04-29 03:56:00